M I D A S
Marine Information and Data Acquisition System
Tripno 224 of the Zeeleeuw from 2002-03-01 07:40:00 to 2002-03-01 16:05:00
Back to CruiseResearch ActivitiesStationsMapUnderway DataData graphs

EquipmentUnitsComments
TimeDGPSUTC
LatitudeDGPSDM.mWGS84
LongitudeDGPSDM.mWGS84
SpeedMeteo Stationm/sRelative wind speed
DirectionMeteo StationdegRelative wind direction
TemperatureMeteo Stationdeg CelciusAir temperature
PressureMeteo StationPaAtmospheric pressure
HumidityMeteo Station%Relative humidity
Missing or incorrect values are displayed as -999
Metereological data collected by the RV Zeeleeuw from 2002-03-01 07:40:00 to 2002-03-01 16:05:00
                                                                                    Next 1000 lines
Time Latitude Longitude Speed Direction Temperature Pressure Humidity
2002-03-01 07:49:05 51°14.297 2°55.205 5.3 166 4.4 100660 92
2002-03-01 07:49:10 51°14.306 2°55.19 6.7 174 4.4 100660 92
2002-03-01 07:49:14 51°14.313 2°55.177 6.3 171 4.4 100660 92
2002-03-01 07:49:20 51°14.323 2°55.159 6.5 169 4.5 100660 92
2002-03-01 07:49:25 51°14.331 2°55.143 6.6 176 4.5 100660 92
2002-03-01 07:49:30 51°14.34 2°55.127 6.3 176 4.5 100660 92
2002-03-01 07:49:35 51°14.348 2°55.11 5.4 163 4.5 100660 92
2002-03-01 07:49:40 51°14.356 2°55.094 5.5 167 4.5 100660 92
2002-03-01 07:49:45 51°14.364 2°55.078 5.5 167 4.5 100660 92
2002-03-01 07:49:50 51°14.372 2°55.062 7.1 182 4.4 100660 92
2002-03-01 07:49:55 51°14.38 2°55.046 6.9 184 4.4 100660 92
2002-03-01 07:50:00 51°14.388 2°55.029 6.6 180 4.5 100660 92
2002-03-01 07:50:05 51°14.396 2°55.011 6.7 179 4.5 100660 92
2002-03-01 07:50:10 51°14.404 2°54.994 6.3 176 4.5 100660 92
2002-03-01 07:50:15 51°14.412 2°54.977 7.1 179 4.5 100660 92
2002-03-01 07:50:20 51°14.42 2°54.958 6.3 173 4.5 100660 92
2002-03-01 07:50:25 51°14.428 2°54.939 7.4 176 4.5 100660 92
2002-03-01 07:50:30 51°14.436 2°54.919 7.8 175 4.5 100660 92
2002-03-01 07:50:35 51°14.445 2°54.899 7.8 175 4.5 100660 92
2002-03-01 07:50:39 51°14.451 2°54.881 8.2 173 4.5 100660 92
2002-03-01 07:50:45 51°14.461 2°54.855 7.6 174 4.5 100660 92
2002-03-01 07:50:50 51°14.469 2°54.832 7.6 178 4.5 100660 92
2002-03-01 07:50:54 51°14.475 2°54.814 7.4 178 4.5 100660 92
2002-03-01 07:50:59 51°14.485 2°54.792 8.1 176 4.5 100660 92
2002-03-01 07:51:05 51°14.497 2°54.765 8.4 174 4.5 100660 92
2002-03-01 07:51:10 51°14.508 2°54.743 8.5 181 4.5 100660 92
2002-03-01 07:51:15 51°14.519 2°54.721 7.9 178 4.5 100660 92
2002-03-01 07:51:20 51°14.531 2°54.7 8.1 181 4.5 100660 92
2002-03-01 07:51:25 51°14.544 2°54.681 6.8 182 4.5 100660 92
2002-03-01 07:51:30 51°14.558 2°54.663 7.2 184 4.5 100660 92
2002-03-01 07:51:35 51°14.572 2°54.646 6.2 183 4.5 100660 92
2002-03-01 07:51:39 51°14.584 2°54.634 7.1 184 4.5 100670 92
2002-03-01 07:51:45 51°14.603 2°54.617 6.2 182 4.5 100670 92
2002-03-01 07:51:50 51°14.619 2°54.603 6.1 184 4.5 100670 92
2002-03-01 07:51:55 51°14.635 2°54.59 5.9 186 4.5 100670 92
2002-03-01 07:52:00 51°14.651 2°54.577 6 187 4.5 100660 92
2002-03-01 07:52:04 51°14.664 2°54.568 5.4 186 4.5 100660 92
2002-03-01 07:52:10 51°14.684 2°54.555 5.3 181 4.5 100670 92
2002-03-01 07:52:15 51°14.7 2°54.545 4.6 187 4.5 100670 92
2002-03-01 07:52:20 51°14.717 2°54.538 5 179 4.5 100670 92
2002-03-01 07:52:25 51°14.735 2°54.53 5 183 4.5 100670 92
2002-03-01 07:52:29 51°14.748 2°54.526 4.4 178 4.5 100680 92
2002-03-01 07:52:34 51°14.766 2°54.521 4.7 177 4.5 100680 92
2002-03-01 07:52:40 51°14.787 2°54.516 4.2 175 4.5 100680 92
2002-03-01 07:52:45 51°14.804 2°54.514 4.6 187 4.5 100680 92
2002-03-01 07:52:50 51°14.821 2°54.511 4.1 184 4.6 100670 92
2002-03-01 07:52:55 51°14.839 2°54.51 3.4 191 4.6 100670 92
2002-03-01 07:53:00 51°14.856 2°54.509 3.5 194 4.6 100680 92
2002-03-01 07:53:05 51°14.873 2°54.51 3.9 178 4.6 100680 92
2002-03-01 07:53:10 51°14.891 2°54.512 3.8 177 4.6 100670 92
2002-03-01 07:53:15 51°14.907 2°54.513 3.5 177 4.6 100670 92
2002-03-01 07:53:20 51°14.924 2°54.516 3.4 182 4.6 100680 92
2002-03-01 07:53:24 51°14.938 2°54.518 3.6 178 4.6 100680 92
2002-03-01 07:53:30 51°14.958 2°54.52 3.7 182 4.6 100670 92
2002-03-01 07:53:35 51°14.974 2°54.522 4 187 4.6 100670 92
2002-03-01 07:53:40 51°14.991 2°54.524 2.9 175 4.6 100680 92
2002-03-01 07:53:45 51°15.007 2°54.526 2.6 189 4.6 100680 92
2002-03-01 07:53:50 51°15.023 2°54.53 3 179 4.6 100680 92
2002-03-01 07:53:55 51°15.038 2°54.533 3.3 187 4.6 100680 92
2002-03-01 07:54:00 51°15.054 2°54.536 3.1 186 4.6 100680 92
2002-03-01 07:54:05 51°15.07 2°54.54 3 192 4.6 100680 92
2002-03-01 07:54:10 51°15.085 2°54.545 2.4 180 4.6 100680 92
2002-03-01 07:54:15 51°15.101 2°54.549 2.5 192 4.6 100680 92
2002-03-01 07:54:20 51°15.116 2°54.554 2.2 184 4.6 100680 92
2002-03-01 07:54:24 51°15.129 2°54.558 1.7 187 4.6 100680 92
2002-03-01 07:54:30 51°15.147 2°54.564 2 191 4.6 100680 92
2002-03-01 07:54:35 51°15.163 2°54.569 1.8 190 4.6 100680 92
2002-03-01 07:54:40 51°15.178 2°54.573 1.9 190 4.7 100680 92
2002-03-01 07:54:45 51°15.194 2°54.576 1.9 184 4.7 100680 92
2002-03-01 07:54:50 51°15.21 2°54.577 3.8 189 4.7 100680 92
2002-03-01 07:54:55 51°15.226 2°54.577 3.9 187 4.7 100680 92
2002-03-01 07:55:00 51°15.242 2°54.575 4.3 184 4.7 100680 92
2002-03-01 07:55:05 51°15.258 2°54.572 4.7 184 4.7 100680 92
2002-03-01 07:55:10 51°15.274 2°54.566 5.3 182 4.7 100690 92
2002-03-01 07:55:15 51°15.29 2°54.559 5.3 188 4.7 100690 92
2002-03-01 07:55:20 51°15.305 2°54.551 5.4 184 4.7 100690 92
2002-03-01 07:55:24 51°15.318 2°54.543 5.6 187 4.7 100690 92
2002-03-01 07:55:30 51°15.336 2°54.529 6.7 185 4.7 100680 92
2002-03-01 07:55:35 51°15.352 2°54.517 6.1 185 4.7 100680 92
2002-03-01 07:55:40 51°15.367 2°54.507 6.2 186 4.7 100680 92
2002-03-01 07:55:45 51°15.383 2°54.497 6.1 187 4.7 100680 92
2002-03-01 07:55:50 51°15.399 2°54.488 5.6 186 4.7 100680 92
2002-03-01 07:55:55 51°15.416 2°54.48 5.5 194 4.7 100680 92
2002-03-01 07:56:00 51°15.432 2°54.472 4.6 191 4.7 100670 92
2002-03-01 07:56:05 51°15.449 2°54.467 4.3 191 4.7 100670 92
2002-03-01 07:56:10 51°15.466 2°54.462 4.9 183 4.7 100680 92
2002-03-01 07:56:15 51°15.483 2°54.458 4.5 200 4.7 100680 92
2002-03-01 07:56:20 51°15.5 2°54.454 5.5 183 4.7 100680 92
2002-03-01 07:56:24 51°15.513 2°54.45 4.9 190 4.7 100680 92
2002-03-01 07:56:30 51°15.534 2°54.445 4.8 189 4.7 100680 92
2002-03-01 07:56:35 51°15.551 2°54.441 4.3 187 4.7 100680 92
2002-03-01 07:56:40 51°15.568 2°54.437 4.4 190 4.7 100680 92
2002-03-01 07:56:45 51°15.585 2°54.435 4.4 190 4.7 100680 92
2002-03-01 07:56:50 51°15.603 2°54.433 3.7 189 4.7 100680 92
2002-03-01 07:56:55 51°15.62 2°54.432 4.1 189 4.7 100680 92
2002-03-01 07:57:00 51°15.638 2°54.432 4.4 185 4.7 100680 92
2002-03-01 07:57:05 51°15.655 2°54.433 3.6 188 4.7 100680 92
2002-03-01 07:57:10 51°15.673 2°54.433 3.6 185 4.7 100680 92
2002-03-01 07:57:15 51°15.69 2°54.433 3.8 188 4.7 100680 92
2002-03-01 07:57:20 51°15.707 2°54.434 3.6 188 4.7 100680 92
2002-03-01 07:57:24 51°15.721 2°54.435 3.4 184 4.7 100680 92
2002-03-01 07:57:30 51°15.743 2°54.437 3.5 188 4.8 100680 92
2002-03-01 07:57:35 51°15.76 2°54.437 3.8 182 4.8 100680 92
2002-03-01 07:57:40 51°15.778 2°54.437 3.9 187 4.7 100690 92
2002-03-01 07:57:45 51°15.796 2°54.435 4.2 183 4.7 100690 92
2002-03-01 07:57:50 51°15.814 2°54.433 4.9 182 4.8 100680 92
2002-03-01 07:57:55 51°15.831 2°54.431 5.3 193 4.8 100680 92
2002-03-01 07:58:00 51°15.849 2°54.426 4.4 188 4.8 100680 92
2002-03-01 07:58:05 51°15.867 2°54.422 4.6 194 4.8 100680 92
2002-03-01 07:58:10 51°15.885 2°54.419 4.3 191 4.8 100680 92
2002-03-01 07:58:15 51°15.903 2°54.415 4.5 185 4.8 100680 92
2002-03-01 07:58:20 51°15.921 2°54.412 5.6 179 4.8 100680 92
2002-03-01 07:58:24 51°15.936 2°54.41 4.8 185 4.8 100680 92
2002-03-01 07:58:29 51°15.954 2°54.408 4.3 190 4.8 100680 92
2002-03-01 07:58:35 51°15.973 2°54.407 3.7 194 4.8 100680 92
2002-03-01 07:58:40 51°15.989 2°54.407 4.3 191 4.8 100680 92
2002-03-01 07:58:45 51°16.004 2°54.408 3.8 190 4.8 100680 92
2002-03-01 07:58:50 51°16.018 2°54.41 3 206 4.8 100680 92
2002-03-01 07:58:55 51°16.031 2°54.413 2.2 210 4.8 100680 92
2002-03-01 07:59:00 51°16.042 2°54.418 1 249 4.8 100690 92
2002-03-01 07:59:05 51°16.053 2°54.423 1.5 262 4.8 100690 92
2002-03-01 07:59:10 51°16.062 2°54.427 1.7 292 4.9 100680 92
2002-03-01 07:59:15 51°16.071 2°54.433 1.7 300 4.9 100680 92
2002-03-01 07:59:20 51°16.079 2°54.438 1.8 308 4.9 100680 92
2002-03-01 07:59:24 51°16.085 2°54.443 1.8 316 4.9 100680 92
2002-03-01 07:59:30 51°16.092 2°54.449 1.5 321 4.9 100680 92
2002-03-01 07:59:35 51°16.098 2°54.455 1.5 357 4.9 100680 92
2002-03-01 07:59:40 51°16.104 2°54.461 1.1 280 4.9 100690 92
2002-03-01 07:59:45 51°16.109 2°54.466 1.9 316 4.9 100690 92
2002-03-01 07:59:50 51°16.114 2°54.47 1.6 321 4.9 100680 92
2002-03-01 07:59:55 51°16.119 2°54.476 2.2 328 4.9 100680 92
2002-03-01 08:00:00 51°16.124 2°54.48 2.2 325 4.9 100680 92
2002-03-01 08:00:05 51°16.128 2°54.484 2.9 311 4.9 100680 92
2002-03-01 08:00:10 51°16.132 2°54.488 2.4 329 5 100680 92
2002-03-01 08:00:15 51°16.136 2°54.492 3.7 324 5 100680 92
2002-03-01 08:00:20 51°16.14 2°54.496 3.4 321 5 100680 92
2002-03-01 08:00:25 51°16.143 2°54.5 3.4 322 5 100680 92
2002-03-01 08:00:30 51°16.147 2°54.502 3.4 320 5 100690 92
2002-03-01 08:00:35 51°16.15 2°54.506 3.5 319 5 100690 92
2002-03-01 08:00:40 51°16.153 2°54.508 3.8 322 5 100690 92
2002-03-01 08:00:45 51°16.156 2°54.512 3.9 315 5 100690 92
2002-03-01 08:00:50 51°16.159 2°54.514 3.7 320 5 100680 92
2002-03-01 08:00:55 51°16.162 2°54.517 4.2 299 5 100680 92
2002-03-01 08:01:00 51°16.165 2°54.519 4.1 318 5 100680 92
2002-03-01 08:01:05 51°16.167 2°54.522 4 321 5 100680 92
2002-03-01 08:01:10 51°16.17 2°54.523 3.7 298 5.1 100680 92
2002-03-01 08:01:15 51°16.173 2°54.524 3.7 312 5.1 100680 92
2002-03-01 08:01:20 51°16.176 2°54.526 3.8 303 5.1 100690 92
2002-03-01 08:01:25 51°16.178 2°54.527 4.2 305 5.1 100690 92
2002-03-01 08:01:30 51°16.181 2°54.529 3.9 305 5.2 100680 93
2002-03-01 08:01:35 51°16.183 2°54.529 4.2 302 5.2 100680 93
2002-03-01 08:01:40 51°16.185 2°54.531 4.7 294 5.2 100690 93
2002-03-01 08:01:45 51°16.188 2°54.532 4.2 298 5.2 100690 93
2002-03-01 08:01:50 51°16.19 2°54.532 4.2 300 5.2 100690 93
2002-03-01 08:01:55 51°16.192 2°54.533 4.4 292 5.2 100690 93
2002-03-01 08:02:00 51°16.194 2°54.534 3.9 293 5.2 100690 93
2002-03-01 08:02:05 51°16.196 2°54.534 3.7 294 5.2 100690 93
2002-03-01 08:02:10 51°16.198 2°54.535 3.8 294 5.2 100690 92
2002-03-01 08:02:15 51°16.2 2°54.535 4.1 289 5.2 100690 92
2002-03-01 08:02:20 51°16.201 2°54.535 4 299 5.2 100690 92
2002-03-01 08:02:25 51°16.203 2°54.535 3.9 289 5.2 100690 92
2002-03-01 08:02:30 51°16.205 2°54.535 4.4 301 5.2 100690 92
2002-03-01 08:02:35 51°16.207 2°54.535 4.4 308 5.2 100690 92
2002-03-01 08:02:39 51°16.208 2°54.535 4.6 297 5.2 100680 92
2002-03-01 08:02:45 51°16.21 2°54.535 4.3 294 5.2 100680 92
2002-03-01 08:02:50 51°16.212 2°54.535 4.8 292 5.2 100690 92
2002-03-01 08:02:55 51°16.213 2°54.534 4.9 295 5.2 100690 92
2002-03-01 08:03:00 51°16.215 2°54.534 4.8 292 5.2 100690 92
2002-03-01 08:03:05 51°16.216 2°54.534 4.7 292 5.2 100690 92
2002-03-01 08:03:09 51°16.218 2°54.534 4.7 298 5.2 100690 92
2002-03-01 08:03:15 51°16.22 2°54.533 4.8 293 5.2 100690 92
2002-03-01 08:03:20 51°16.221 2°54.533 4.9 300 5.2 100690 92
2002-03-01 08:03:25 51°16.223 2°54.532 5 297 5.2 100690 92
2002-03-01 08:03:29 51°16.224 2°54.532 5.1 295 5.2 100690 92
2002-03-01 08:03:35 51°16.225 2°54.531 4.9 296 5.2 100690 92
2002-03-01 08:03:40 51°16.227 2°54.531 4.4 294 5.1 100700 92
2002-03-01 08:03:45 51°16.229 2°54.529 4.6 293 5.1 100700 92
2002-03-01 08:03:50 51°16.23 2°54.528 5.1 299 5.1 100690 92
2002-03-01 08:03:55 51°16.232 2°54.527 5 300 5.1 100690 92
2002-03-01 08:04:00 51°16.233 2°54.527 4.9 301 5.1 100690 92
2002-03-01 08:04:05 51°16.234 2°54.526 5.1 300 5.1 100690 92
2002-03-01 08:04:10 51°16.235 2°54.525 4.8 296 5.1 100690 92
2002-03-01 08:04:15 51°16.237 2°54.524 4.1 292 5.1 100690 92
2002-03-01 08:04:20 51°16.238 2°54.523 5 296 5.1 100700 92
2002-03-01 08:04:25 51°16.239 2°54.523 4.9 295 5.1 100700 92
2002-03-01 08:04:30 51°16.24 2°54.522 4.6 300 5.1 100700 92
2002-03-01 08:04:35 51°16.241 2°54.521 4.5 297 5.1 100700 92
2002-03-01 08:04:40 51°16.242 2°54.52 4.7 294 5.1 100690 92
2002-03-01 08:04:45 51°16.243 2°54.519 4.6 297 5.1 100690 92
2002-03-01 08:04:50 51°16.244 2°54.519 4.3 290 5.1 100700 92
2002-03-01 08:04:54 51°16.245 2°54.518 4.3 299 5.1 100700 92
2002-03-01 08:05:00 51°16.246 2°54.517 4.2 291 5.1 100690 92
2002-03-01 08:05:05 51°16.247 2°54.516 4.5 289 5.1 100690 92
2002-03-01 08:05:10 51°16.248 2°54.515 4.5 295 5.1 100690 92
2002-03-01 08:05:15 51°16.249 2°54.514 5.2 289 5.1 100690 92
2002-03-01 08:05:19 51°16.25 2°54.512 4.7 295 5.1 100690 92
2002-03-01 08:05:25 51°16.251 2°54.512 4.8 289 5.1 100690 92
2002-03-01 08:05:30 51°16.252 2°54.51 4.6 292 5.1 100700 92
2002-03-01 08:05:35 51°16.253 2°54.509 5.1 290 5.1 100700 92
2002-03-01 08:05:39 51°16.254 2°54.509 5.4 301 5.1 100700 92
2002-03-01 08:05:45 51°16.255 2°54.507 5.3 290 5.1 100700 92
2002-03-01 08:05:50 51°16.256 2°54.507 5.3 295 5.1 100700 92
2002-03-01 08:05:55 51°16.257 2°54.506 5.8 290 5.1 100700 92
2002-03-01 08:06:00 51°16.258 2°54.505 5.1 295 5.1 100700 92
2002-03-01 08:06:05 51°16.258 2°54.503 5.5 296 5.1 100700 92
2002-03-01 08:06:10 51°16.259 2°54.502 5.2 292 5.1 100700 92
2002-03-01 08:06:15 51°16.26 2°54.501 5 291 5.1 100700 92
2002-03-01 08:06:19 51°16.261 2°54.5 5.5 289 5.1 100700 92
2002-03-01 08:06:25 51°16.262 2°54.499 5.4 289 5.1 100700 92
2002-03-01 08:06:30 51°16.262 2°54.498 5.5 287 5.1 100700 92
2002-03-01 08:06:35 51°16.263 2°54.497 5.5 280 5.1 100700 92
2002-03-01 08:06:39 51°16.264 2°54.496 4.7 282 5.1 100700 92
2002-03-01 08:06:43 51°16.264 2°54.495 4.9 286 5.1 100700 92
2002-03-01 08:06:49 51°16.265 2°54.494 4.7 280 5.1 100700 92
2002-03-01 08:06:55 51°16.266 2°54.492 4.9 282 5.1 100700 92
2002-03-01 08:06:59 51°16.266 2°54.491 4.4 283 5.1 100710 92
2002-03-01 08:07:05 51°16.267 2°54.49 4.5 281 5.1 100710 92
2002-03-01 08:07:09 51°16.268 2°54.489 5 281 5.1 100710 92
2002-03-01 08:07:14 51°16.268 2°54.488 4.9 278 5.1 100710 92
2002-03-01 08:07:19 51°16.269 2°54.486 5.2 282 5.1 100700 92
2002-03-01 08:07:25 51°16.27 2°54.485 4.7 287 5.1 100700 92
2002-03-01 08:07:29 51°16.27 2°54.484 5 282 5.1 100700 92
2002-03-01 08:07:35 51°16.271 2°54.482 5 283 5.1 100700 92
2002-03-01 08:07:39 51°16.272 2°54.481 4.8 281 5.1 100710 92
2002-03-01 08:07:45 51°16.272 2°54.479 4.8 285 5.1 100710 92
2002-03-01 08:07:49 51°16.272 2°54.478 4.8 281 5.1 100710 92
2002-03-01 08:07:54 51°16.273 2°54.477 4.5 278 5.1 100710 92
2002-03-01 08:07:59 51°16.274 2°54.475 4.4 286 5.1 100710 92
2002-03-01 08:08:05 51°16.274 2°54.474 4.9 282 5.1 100710 92
2002-03-01 08:08:09 51°16.275 2°54.473 5.7 276 5.1 100710 92
2002-03-01 08:08:14 51°16.275 2°54.471 4.9 276 5.1 100710 92
2002-03-01 08:08:19 51°16.276 2°54.47 4.3 278 5.1 100710 92
2002-03-01 08:08:23 51°16.276 2°54.468 4.4 272 5.1 100710 92
2002-03-01 08:08:29 51°16.277 2°54.466 4.7 278 5.1 100710 92
2002-03-01 08:08:34 51°16.277 2°54.465 4.4 272 5.1 100710 92
2002-03-01 08:08:39 51°16.278 2°54.463 4.4 279 5.1 100710 92
2002-03-01 08:08:45 51°16.278 2°54.461 4.5 278 5.1 100710 92
2002-03-01 08:08:49 51°16.278 2°54.46 4.5 276 5.1 100710 92
2002-03-01 08:08:54 51°16.279 2°54.458 3 278 5.1 100710 92
2002-03-01 08:08:59 51°16.279 2°54.456 4.5 279 5.1 100710 92
2002-03-01 08:09:05 51°16.28 2°54.455 4.8 280 5.1 100710 92
2002-03-01 08:09:09 51°16.28 2°54.453 4.6 278 5.1 100710 92
2002-03-01 08:09:14 51°16.281 2°54.451 4.4 261 5.1 100710 92
2002-03-01 08:09:19 51°16.281 2°54.45 5.2 260 5.1 100710 92
2002-03-01 08:09:25 51°16.281 2°54.447 5.2 262 5.1 100710 92
2002-03-01 08:09:29 51°16.282 2°54.446 4.9 252 5.1 100710 92
2002-03-01 08:09:34 51°16.282 2°54.444 5.1 258 5.1 100710 92
2002-03-01 08:09:39 51°16.283 2°54.443 5.4 262 5.1 100710 92
2002-03-01 08:09:45 51°16.283 2°54.44 5.1 263 5.1 100710 92
2002-03-01 08:09:49 51°16.283 2°54.438 4.7 261 5.1 100720 92
2002-03-01 08:09:54 51°16.284 2°54.437 4.9 261 5.1 100720 92
2002-03-01 08:09:59 51°16.284 2°54.435 4.7 257 5.1 100710 92
2002-03-01 08:10:05 51°16.284 2°54.432 4.7 261 5.1 100710 92
2002-03-01 08:10:10 51°16.284 2°54.431 4.2 256 5.1 100710 92
2002-03-01 08:10:15 51°16.285 2°54.428 4.2 259 5.1 100710 92
2002-03-01 08:10:20 51°16.285 2°54.426 4.2 260 5.1 100710 92
2002-03-01 08:10:25 51°16.285 2°54.424 4.1 254 5.1 100710 92
2002-03-01 08:10:30 51°16.286 2°54.423 4.1 254 5.1 100720 92
2002-03-01 08:10:35 51°16.286 2°54.42 4.1 263 5.1 100720 92
2002-03-01 08:10:39 51°16.286 2°54.419 3.9 263 5.1 100720 92
2002-03-01 08:10:45 51°16.286 2°54.416 4.7 265 5.1 100720 92
2002-03-01 08:10:50 51°16.287 2°54.414 3.7 255 5.1 100720 92
2002-03-01 08:10:55 51°16.287 2°54.412 3.9 257 5.1 100720 92
2002-03-01 08:11:00 51°16.287 2°54.41 2.9 238 5.1 100710 92
2002-03-01 08:11:05 51°16.287 2°54.408 2.9 245 5.1 100710 92
2002-03-01 08:11:10 51°16.288 2°54.406 4.6 254 5.1 100710 92
2002-03-01 08:11:15 51°16.288 2°54.404 4.4 264 5.1 100710 92
2002-03-01 08:11:19 51°16.288 2°54.402 4.9 260 5.2 100720 92
2002-03-01 08:11:25 51°16.288 2°54.399 4.6 265 5.2 100720 92
2002-03-01 08:11:30 51°16.288 2°54.397 5.2 261 5.1 100710 92
2002-03-01 08:11:35 51°16.289 2°54.395 4.4 249 5.1 100710 92
2002-03-01 08:11:40 51°16.289 2°54.393 2 248 5.2 100710 92
2002-03-01 08:11:45 51°16.289 2°54.391 2.7 254 5.2 100710 92
2002-03-01 08:11:50 51°16.289 2°54.388 2.5 260 5.2 100720 92
2002-03-01 08:11:55 51°16.289 2°54.386 1 201 5.2 100720 92
2002-03-01 08:12:00 51°16.289 2°54.384 0.6 219 5.2 100720 92
2002-03-01 08:12:05 51°16.29 2°54.382 1.5 224 5.2 100720 92
2002-03-01 08:12:10 51°16.29 2°54.38 1.3 218 5.2 100720 92
2002-03-01 08:12:15 51°16.29 2°54.378 1.3 225 5.2 100720 92
2002-03-01 08:12:20 51°16.29 2°54.377 1.9 240 5.2 100720 92
2002-03-01 08:12:25 51°16.29 2°54.374 1.5 232 5.2 100720 92
2002-03-01 08:12:30 51°16.29 2°54.373 4.7 265 5.2 100720 92
2002-03-01 08:12:35 51°16.29 2°54.37 3.6 249 5.2 100720 92
2002-03-01 08:12:39 51°16.29 2°54.369 3.2 246 5.2 100720 92
2002-03-01 08:12:45 51°16.29 2°54.366 2.7 247 5.2 100720 92
2002-03-01 08:12:50 51°16.29 2°54.365 3 242 5.2 100710 92
2002-03-01 08:12:55 51°16.29 2°54.362 2.3 248 5.2 100710 92
2002-03-01 08:13:00 51°16.291 2°54.36 2.3 254 5.2 100720 92
2002-03-01 08:13:05 51°16.291 2°54.358 2.5 246 5.2 100720 92
2002-03-01 08:13:10 51°16.291 2°54.356 2.1 218 5.2 100720 92
2002-03-01 08:13:15 51°16.291 2°54.354 2.1 243 5.2 100720 92
2002-03-01 08:13:20 51°16.291 2°54.352 1.1 247 5.2 100720 92
2002-03-01 08:13:25 51°16.291 2°54.35 3.9 257 5.2 100720 92
2002-03-01 08:13:30 51°16.291 2°54.348 5.2 267 5.2 100720 92
2002-03-01 08:13:35 51°16.291 2°54.346 2.9 232 5.2 100720 92
2002-03-01 08:13:40 51°16.291 2°54.344 4.3 250 5.2 100720 92
2002-03-01 08:13:45 51°16.291 2°54.342 2.4 231 5.2 100720 92
2002-03-01 08:13:50 51°16.291 2°54.339 1.4 238 5.3 100720 92
2002-03-01 08:13:55 51°16.291 2°54.337 2.3 245 5.3 100720 92
2002-03-01 08:14:00 51°16.291 2°54.335 1.2 244 5.3 100720 92
2002-03-01 08:14:05 51°16.291 2°54.333 1.6 244 5.3 100720 92
2002-03-01 08:14:10 51°16.291 2°54.33 1.1 230 5.2 100720 92
2002-03-01 08:14:15 51°16.291 2°54.328 2 241 5.2 100720 92
2002-03-01 08:14:20 51°16.291 2°54.326 2.5 225 5.2 100720 92
2002-03-01 08:14:25 51°16.291 2°54.323 1.5 234 5.2 100720 92
2002-03-01 08:14:30 51°16.291 2°54.321 0.9 236 5.2 100720 92
2002-03-01 08:14:35 51°16.291 2°54.319 0.4 228 5.2 100720 92
2002-03-01 08:14:40 51°16.291 2°54.317 1.6 247 5.2 100720 92
2002-03-01 08:14:45 51°16.291 2°54.314 0.8 237 5.2 100720 92
2002-03-01 08:14:50 51°16.291 2°54.312 1.9 234 5.2 100720 92
2002-03-01 08:14:55 51°16.291 2°54.31 1.2 231 5.2 100720 92
2002-03-01 08:15:00 51°16.291 2°54.307 1.4 255 5.2 100720 92
2002-03-01 08:15:05 51°16.291 2°54.305 1.8 227 5.2 100720 92
2002-03-01 08:15:10 51°16.291 2°54.303 1.4 225 5.2 100720 92
2002-03-01 08:15:15 51°16.291 2°54.3 1.2 221 5.2 100720 92
2002-03-01 08:15:19 51°16.291 2°54.299 1.5 225 5.2 100720 92
2002-03-01 08:15:25 51°16.29 2°54.296 1.8 316 5.2 100720 92
2002-03-01 08:15:30 51°16.29 2°54.294 1.6 227 5.2 100720 92
2002-03-01 08:15:35 51°16.29 2°54.291 1.8 318 5.2 100720 92
2002-03-01 08:15:40 51°16.291 2°54.289 1.5 211 5.2 100720 91
2002-03-01 08:15:45 51°16.291 2°54.286 1.5 228 5.2 100720 91
2002-03-01 08:15:50 51°16.29 2°54.284 2.1 207 5.2 100730 91
2002-03-01 08:15:55 51°16.29 2°54.281 2.2 232 5.2 100730 91
2002-03-01 08:16:00 51°16.29 2°54.279 1.1 232 5.2 100730 91
2002-03-01 08:16:05 51°16.29 2°54.277 1.9 244 5.2 100730 91
2002-03-01 08:16:10 51°16.29 2°54.275 1.6 229 5.2 100730 91
2002-03-01 08:16:15 51°16.29 2°54.273 1 236 5.2 100730 91
2002-03-01 08:16:20 51°16.289 2°54.27 0.8 238 5.2 100730 91
2002-03-01 08:16:25 51°16.289 2°54.268 1 238 5.2 100730 91
2002-03-01 08:16:30 51°16.289 2°54.266 0.8 257 5.2 100720 91
2002-03-01 08:16:35 51°16.289 2°54.263 0.9 235 5.2 100720 91
2002-03-01 08:16:39 51°16.289 2°54.261 1.1 199 5.2 100730 91
2002-03-01 08:16:45 51°16.289 2°54.258 1 236 5.2 100730 91
2002-03-01 08:16:49 51°16.288 2°54.257 1.6 226 5.2 100730 91
2002-03-01 08:16:55 51°16.288 2°54.254 2.2 225 5.2 100730 91
2002-03-01 08:17:00 51°16.288 2°54.252 3 315 5.3 100730 91
2002-03-01 08:17:05 51°16.288 2°54.249 3.3 218 5.3 100730 91
2002-03-01 08:17:10 51°16.288 2°54.247 2.2 225 5.3 100730 92
2002-03-01 08:17:15 51°16.287 2°54.245 1.8 213 5.3 100730 92
2002-03-01 08:17:20 51°16.287 2°54.242 2 227 5.3 100730 92
2002-03-01 08:17:25 51°16.287 2°54.24 2.9 231 5.3 100730 92
2002-03-01 08:17:30 51°16.287 2°54.237 1.8 229 5.3 100730 91
2002-03-01 08:17:35 51°16.287 2°54.235 1.5 238 5.3 100730 91
2002-03-01 08:17:40 51°16.287 2°54.231 0.9 247 5.3 100730 91
2002-03-01 08:17:45 51°16.287 2°54.229 1 243 5.3 100730 91
2002-03-01 08:17:50 51°16.286 2°54.227 1.8 233 5.3 100730 91
2002-03-01 08:17:55 51°16.286 2°54.224 0.8 221 5.3 100730 91
2002-03-01 08:18:00 51°16.286 2°54.222 1.4 230 5.3 100730 91
2002-03-01 08:18:05 51°16.286 2°54.219 2 213 5.3 100730 91
2002-03-01 08:18:10 51°16.286 2°54.217 1.7 258 5.3 100730 91
2002-03-01 08:18:15 51°16.285 2°54.214 1.4 225 5.3 100730 91
2002-03-01 08:18:20 51°16.285 2°54.212 2.5 227 5.3 100720 92
2002-03-01 08:18:25 51°16.285 2°54.209 2.1 219 5.3 100720 92
2002-03-01 08:18:30 51°16.285 2°54.207 1.5 224 5.4 100730 92
2002-03-01 08:18:35 51°16.284 2°54.204 3.4 217 5.4 100730 92
2002-03-01 08:18:40 51°16.284 2°54.202 2.9 215 5.4 100730 92
2002-03-01 08:18:45 51°16.284 2°54.199 3.1 209 5.4 100730 92
2002-03-01 08:18:50 51°16.284 2°54.197 3 215 5.3 100730 91
2002-03-01 08:18:55 51°16.284 2°54.194 2.8 218 5.3 100730 91
2002-03-01 08:19:00 51°16.283 2°54.192 3.2 221 5.3 100730 91
2002-03-01 08:19:05 51°16.283 2°54.189 4 217 5.3 100730 91
2002-03-01 08:19:10 51°16.283 2°54.187 3.2 224 5.3 100730 91
2002-03-01 08:19:15 51°16.283 2°54.184 3.4 222 5.3 100730 91
2002-03-01 08:19:19 51°16.282 2°54.182 2.2 222 5.3 100730 91
2002-03-01 08:19:25 51°16.282 2°54.18 2.6 208 5.3 100730 91
2002-03-01 08:19:30 51°16.282 2°54.177 4.3 213 5.3 100730 91
2002-03-01 08:19:35 51°16.282 2°54.174 4.2 211 5.3 100730 91
2002-03-01 08:19:40 51°16.281 2°54.172 4.6 206 5.3 100730 91
2002-03-01 08:19:45 51°16.281 2°54.17 4.3 209 5.3 100730 91
2002-03-01 08:19:50 51°16.281 2°54.167 3.6 212 5.4 100730 91
2002-03-01 08:19:55 51°16.281 2°54.165 3.3 214 5.4 100730 91
2002-03-01 08:20:00 51°16.28 2°54.162 3.6 216 5.4 100730 91
2002-03-01 08:20:05 51°16.28 2°54.16 2.4 230 5.4 100730 91
2002-03-01 08:20:10 51°16.28 2°54.158 1.8 135 5.4 100730 91
2002-03-01 08:20:15 51°16.28 2°54.155 2.3 210 5.4 100730 91
2002-03-01 08:20:20 51°16.279 2°54.153 2.2 318 5.4 100730 91
2002-03-01 08:20:25 51°16.279 2°54.15 2.6 221 5.4 100730 91
2002-03-01 08:20:30 51°16.279 2°54.148 4.3 215 5.4 100730 91
2002-03-01 08:20:35 51°16.279 2°54.146 3.5 214 5.4 100730 91
2002-03-01 08:20:40 51°16.278 2°54.143 2.9 214 5.4 100730 91
2002-03-01 08:20:45 51°16.278 2°54.141 3.3 223 5.4 100730 91
2002-03-01 08:20:50 51°16.278 2°54.138 2.3 211 5.4 100730 91
2002-03-01 08:20:55 51°16.278 2°54.136 2.1 238 5.4 100730 91
2002-03-01 08:21:00 51°16.278 2°54.134 2.6 218 5.4 100730 91
2002-03-01 08:21:05 51°16.277 2°54.132 2.4 233 5.4 100730 91
2002-03-01 08:21:10 51°16.277 2°54.129 2 198 5.4 100730 91
2002-03-01 08:21:15 51°16.277 2°54.127 2.5 226 5.4 100730 91
2002-03-01 08:21:20 51°16.277 2°54.124 2.7 316 5.4 100730 91
2002-03-01 08:21:24 51°16.276 2°54.123 1.5 213 5.4 100730 91
2002-03-01 08:21:30 51°16.276 2°54.12 2.8 217 5.4 100730 91
2002-03-01 08:21:35 51°16.276 2°54.117 2.3 212 5.4 100730 91
2002-03-01 08:21:39 51°16.276 2°54.115 3.5 223 5.4 100730 91
2002-03-01 08:21:45 51°16.275 2°54.112 2.5 223 5.4 100730 91
2002-03-01 08:21:50 51°16.275 2°54.11 2.2 231 5.4 100730 91
2002-03-01 08:21:55 51°16.275 2°54.108 2.6 227 5.4 100730 91
2002-03-01 08:22:00 51°16.275 2°54.105 3.1 215 5.4 100730 91
2002-03-01 08:22:05 51°16.274 2°54.103 2.6 221 5.4 100730 91
2002-03-01 08:22:10 51°16.274 2°54.101 2.1 230 5.4 100730 91
2002-03-01 08:22:15 51°16.274 2°54.098 1.7 243 5.4 100730 91
2002-03-01 08:22:19 51°16.274 2°54.096 1.5 236 5.4 100730 91
2002-03-01 08:22:25 51°16.273 2°54.093 2.5 222 5.4 100730 91
2002-03-01 08:22:30 51°16.273 2°54.091 2.3 224 5.4 100730 91
2002-03-01 08:22:35 51°16.273 2°54.088 2.8 215 5.4 100730 91
2002-03-01 08:22:40 51°16.272 2°54.086 2.6 215 5.4 100730 91
2002-03-01 08:22:45 51°16.272 2°54.084 2.2 224 5.4 100730 91
2002-03-01 08:22:50 51°16.272 2°54.082 2.3 216 5.4 100730 91
2002-03-01 08:22:55 51°16.272 2°54.079 2.8 217 5.4 100730 91
2002-03-01 08:23:00 51°16.272 2°54.077 3.3 226 5.5 100730 91
2002-03-01 08:23:05 51°16.271 2°54.074 2.2 227 5.5 100730 91
2002-03-01 08:23:10 51°16.271 2°54.072 2.4 130 5.5 100730 91
2002-03-01 08:23:15 51°16.271 2°54.069 2.7 223 5.5 100730 91
2002-03-01 08:23:20 51°16.271 2°54.067 3.1 208 5.4 100730 91
2002-03-01 08:23:25 51°16.27 2°54.065 2.9 213 5.4 100730 91
2002-03-01 08:23:30 51°16.27 2°54.063 2.6 209 5.4 100730 91
2002-03-01 08:23:35 51°16.27 2°54.06 3.2 209 5.4 100730 91
2002-03-01 08:23:40 51°16.27 2°54.058 2.3 213 5.4 100730 91
2002-03-01 08:23:45 51°16.269 2°54.056 3.2 215 5.4 100730 91
2002-03-01 08:23:50 51°16.269 2°54.053 3.3 222 5.4 100730 91
2002-03-01 08:23:55 51°16.269 2°54.051 2.4 217 5.4 100730 91
2002-03-01 08:23:59 51°16.269 2°54.049 2.3 202 5.4 100730 91
2002-03-01 08:24:05 51°16.268 2°54.046 3.1 207 5.4 100730 91
2002-03-01 08:24:10 51°16.268 2°54.044 2.9 221 5.4 100730 91
2002-03-01 08:24:15 51°16.268 2°54.041 2.9 216 5.4 100730 91
2002-03-01 08:24:20 51°16.268 2°54.039 3.2 215 5.4 100730 91
2002-03-01 08:24:25 51°16.268 2°54.037 3.1 214 5.4 100730 91
2002-03-01 08:24:29 51°16.267 2°54.035 2.4 315 5.4 100740 91
2002-03-01 08:24:35 51°16.267 2°54.032 2.3 212 5.4 100740 91
2002-03-01 08:24:40 51°16.267 2°54.03 1.8 220 5.4 100740 91
2002-03-01 08:24:45 51°16.267 2°54.027 1.8 232 5.4 100740 91
2002-03-01 08:24:50 51°16.267 2°54.025 2.1 221 5.4 100730 91
2002-03-01 08:24:55 51°16.267 2°54.023 1.9 228 5.4 100730 91
2002-03-01 08:25:00 51°16.266 2°54.02 2.4 218 5.5 100730 91
2002-03-01 08:25:05 51°16.266 2°54.018 2.5 228 5.5 100730 91
2002-03-01 08:25:10 51°16.266 2°54.015 3.5 214 5.5 100740 91
2002-03-01 08:25:15 51°16.267 2°54.011 3.2 211 5.5 100740 91
2002-03-01 08:25:20 51°16.269 2°54.005 5.7 198 5.5 100730 91
2002-03-01 08:25:25 51°16.273 2°53.997 7.2 202 5.5 100730 91
2002-03-01 08:25:30 51°16.278 2°53.988 7.1 202 5.5 100730 91
2002-03-01 08:25:35 51°16.284 2°53.976 6.5 200 5.5 100730 91
2002-03-01 08:25:40 51°16.291 2°53.964 7.8 196 5.5 100730 91
2002-03-01 08:25:45 51°16.3 2°53.949 7.3 189 5.5 100730 91
2002-03-01 08:25:50 51°16.31 2°53.933 7.7 189 5.5 100730 91
2002-03-01 08:25:55 51°16.32 2°53.916 8.3 189 5.5 100730 91
2002-03-01 08:26:00 51°16.332 2°53.898 7.7 188 5.5 100730 91
2002-03-01 08:26:05 51°16.344 2°53.881 7.6 183 5.5 100730 91
2002-03-01 08:26:10 51°16.356 2°53.864 8.3 183 5.5 100730 91
2002-03-01 08:26:15 51°16.369 2°53.846 8.5 180 5.5 100730 91
2002-03-01 08:26:19 51°16.379 2°53.831 8.8 180 5.5 100730 91
2002-03-01 08:26:25 51°16.395 2°53.807 9.1 182 5.5 100730 91
2002-03-01 08:26:30 51°16.407 2°53.787 8.4 184 5.5 100720 91
2002-03-01 08:26:35 51°16.42 2°53.767 9.6 183 5.5 100720 91
2002-03-01 08:26:39 51°16.431 2°53.75 8.4 180 5.5 100720 91
2002-03-01 08:26:45 51°16.446 2°53.725 9.2 183 5.5 100720 91
2002-03-01 08:26:50 51°16.46 2°53.704 8.1 182 5.5 100720 91
2002-03-01 08:26:55 51°16.473 2°53.684 8.3 182 5.5 100720 91
2002-03-01 08:26:59 51°16.484 2°53.668 8.7 181 5.5 100730 91
2002-03-01 08:27:05 51°16.501 2°53.644 8.9 178 5.5 100730 91
2002-03-01 08:27:10 51°16.514 2°53.624 7.9 179 5.5 100730 91
2002-03-01 08:27:15 51°16.527 2°53.603 8.3 180 5.5 100730 91
2002-03-01 08:27:20 51°16.541 2°53.583 8.4 185 5.5 100730 91
2002-03-01 08:27:25 51°16.554 2°53.562 9 184 5.5 100730 91
2002-03-01 08:27:29 51°16.566 2°53.546 8.1 179 5.6 100730 91
2002-03-01 08:27:35 51°16.583 2°53.523 8.1 187 5.6 100730 91
2002-03-01 08:27:40 51°16.598 2°53.505 7.6 189 5.6 100730 91
2002-03-01 08:27:45 51°16.612 2°53.486 8 185 5.6 100730 91
2002-03-01 08:27:50 51°16.627 2°53.468 8.7 181 5.6 100720 91
2002-03-01 08:27:55 51°16.641 2°53.448 8.2 180 5.6 100720 91
2002-03-01 08:28:00 51°16.655 2°53.429 7.7 183 5.6 100720 91
2002-03-01 08:28:05 51°16.67 2°53.409 7.9 184 5.6 100720 91
2002-03-01 08:28:10 51°16.684 2°53.391 7.9 184 5.6 100730 91
2002-03-01 08:28:15 51°16.698 2°53.373 8 187 5.6 100730 91
2002-03-01 08:28:20 51°16.713 2°53.354 8.7 183 5.6 100730 91
2002-03-01 08:28:25 51°16.727 2°53.335 8.5 182 5.6 100730 91
2002-03-01 08:28:30 51°16.74 2°53.315 8.2 185 5.6 100730 91
2002-03-01 08:28:35 51°16.754 2°53.294 8.5 182 5.6 100730 91
2002-03-01 08:28:39 51°16.765 2°53.278 8.3 177 5.6 100730 91
2002-03-01 08:28:45 51°16.782 2°53.256 7.7 181 5.6 100730 91
2002-03-01 08:28:50 51°16.796 2°53.236 7.9 182 5.6 100730 91
2002-03-01 08:28:55 51°16.809 2°53.217 8.5 179 5.6 100730 91
2002-03-01 08:29:00 51°16.823 2°53.197 9 180 5.7 100730 91
2002-03-01 08:29:05 51°16.836 2°53.177 8.6 182 5.7 100730 91
2002-03-01 08:29:10 51°16.85 2°53.158 8.9 185 5.7 100730 91
2002-03-01 08:29:15 51°16.863 2°53.139 8.1 184 5.7 100730 91
2002-03-01 08:29:20 51°16.876 2°53.122 7.6 183 5.7 100720 91
2002-03-01 08:29:25 51°16.889 2°53.105 7.4 182 5.7 100720 91
2002-03-01 08:29:30 51°16.901 2°53.087 7.5 185 5.7 100730 91
2002-03-01 08:29:35 51°16.913 2°53.07 7.5 185 5.7 100730 91
2002-03-01 08:29:40 51°16.925 2°53.054 7.8 184 5.7 100730 91
2002-03-01 08:29:45 51°16.937 2°53.038 7.2 190 5.7 100730 91
2002-03-01 08:29:50 51°16.95 2°53.022 7.6 187 5.7 100730 91
2002-03-01 08:29:55 51°16.963 2°53.007 6.8 184 5.7 100730 91
2002-03-01 08:29:59 51°16.973 2°52.995 7.3 187 5.7 100730 91
2002-03-01 08:30:05 51°16.988 2°52.976 7.2 185 5.7 100730 91
2002-03-01 08:30:10 51°17.001 2°52.959 7 184 5.8 100740 91
2002-03-01 08:30:15 51°17.014 2°52.944 7.4 181 5.8 100740 91
2002-03-01 08:30:20 51°17.027 2°52.928 7.2 185 5.8 100740 91
2002-03-01 08:30:25 51°17.041 2°52.912 7.7 182 5.8 100740 91
2002-03-01 08:30:30 51°17.055 2°52.897 7.4 186 5.8 100740 91
2002-03-01 08:30:35 51°17.069 2°52.882 7 185 5.8 100740 91
2002-03-01 08:30:40 51°17.084 2°52.868 7.2 183 5.8 100740 91
2002-03-01 08:30:45 51°17.099 2°52.855 7.8 184 5.8 100740 91
2002-03-01 08:30:49 51°17.111 2°52.844 7.6 186 5.8 100740 91
2002-03-01 08:30:55 51°17.13 2°52.827 7.4 179 5.8 100740 91
2002-03-01 08:31:00 51°17.145 2°52.813 7.4 180 5.8 100740 91
2002-03-01 08:31:05 51°17.161 2°52.8 7.4 180 5.8 100740 91
2002-03-01 08:31:10 51°17.177 2°52.788 6.7 180 5.9 100740 91
2002-03-01 08:31:15 51°17.193 2°52.777 7.2 174 5.9 100740 91
2002-03-01 08:31:20 51°17.209 2°52.766 6.3 184 5.9 100740 91
2002-03-01 08:31:25 51°17.225 2°52.756 7.2 184 5.9 100740 91
2002-03-01 08:31:30 51°17.241 2°52.747 6.9 181 5.9 100740 91
2002-03-01 08:31:35 51°17.257 2°52.738 6.7 183 5.9 100740 91
2002-03-01 08:31:40 51°17.273 2°52.728 6.9 187 5.9 100730 91
2002-03-01 08:31:45 51°17.289 2°52.716 7.2 184 5.9 100730 91
2002-03-01 08:31:50 51°17.304 2°52.703 7.9 176 5.9 100750 91
2002-03-01 08:31:55 51°17.318 2°52.687 7.9 177 5.9 100750 91
2002-03-01 08:32:00 51°17.331 2°52.668 8.5 168 5.9 100730 91
2002-03-01 08:32:05 51°17.343 2°52.647 9.7 172 5.9 100730 91
2002-03-01 08:32:10 51°17.353 2°52.624 9 172 5.9 100740 91
2002-03-01 08:32:14 51°17.36 2°52.604 9 169 5.9 100740 91
2002-03-01 08:32:20 51°17.37 2°52.574 10.2 170 6 100730 91
2002-03-01 08:32:25 51°17.377 2°52.547 10.7 168 6 100730 91
2002-03-01 08:32:29 51°17.383 2°52.526 11.3 161 6 100730 91
2002-03-01 08:32:35 51°17.391 2°52.493 10.6 165 6 100730 91
2002-03-01 08:32:40 51°17.397 2°52.465 11.6 163 6 100740 91
2002-03-01 08:32:45 51°17.403 2°52.436 10.3 162 6 100740 91
2002-03-01 08:32:50 51°17.408 2°52.408 11 162 6 100720 91
2002-03-01 08:32:55 51°17.412 2°52.379 10.8 160 6 100720 91
2002-03-01 08:32:59 51°17.416 2°52.355 11.1 165 6 100720 91
2002-03-01 08:33:05 51°17.42 2°52.319 10.1 161 6 100720 91
2002-03-01 08:33:10 51°17.422 2°52.289 11.5 163 6 100710 91
2002-03-01 08:33:15 51°17.424 2°52.259 11.7 158 6 100710 91
2002-03-01 08:33:20 51°17.426 2°52.229 12.1 158 6 100720 91
2002-03-01 08:33:25 51°17.427 2°52.198 11.7 159 6 100720 91
2002-03-01 08:33:30 51°17.428 2°52.167 10.4 157 6 100710 91
2002-03-01 08:33:35 51°17.43 2°52.137 11.8 159 6 100710 91
2002-03-01 08:33:40 51°17.433 2°52.107 10.3 159 6.1 100720 91
2002-03-01 08:33:45 51°17.434 2°52.076 11.9 158 6.1 100720 91
2002-03-01 08:33:50 51°17.436 2°52.046 10.6 158 6.1 100710 91
2002-03-01 08:33:54 51°17.437 2°52.021 11.3 156 6.1 100710 91
2002-03-01 08:33:59 51°17.436 2°51.99 11.2 154 6.1 100720 91
2002-03-01 08:34:05 51°17.433 2°51.954 11.8 152 6.1 100720 91
2002-03-01 08:34:09 51°17.429 2°51.93 11.9 146 6.1 100720 91
2002-03-01 08:34:15 51°17.421 2°51.896 11.9 143 6.1 100720 91
2002-03-01 08:34:20 51°17.412 2°51.869 12.5 143 6.1 100720 91
2002-03-01 08:34:25 51°17.401 2°51.843 11.5 139 6.1 100720 91
2002-03-01 08:34:30 51°17.389 2°51.819 12.9 138 6.1 100720 91
2002-03-01 08:34:35 51°17.375 2°51.797 12.1 135 6.1 100720 91
2002-03-01 08:34:39 51°17.363 2°51.781 11 132 6.1 100720 91
2002-03-01 08:34:45 51°17.344 2°51.762 11.3 131 6.1 100720 91
2002-03-01 08:34:50 51°17.327 2°51.75 12.2 126 6.1 100720 91
2002-03-01 08:34:55 51°17.308 2°51.742 11.2 128 6.1 100720 91
2002-03-01 08:34:59 51°17.293 2°51.736 12 121 6.1 100730 91
2002-03-01 08:35:05 51°17.27 2°51.733 10.5 119 6.1 100730 91
2002-03-01 08:35:09 51°17.254 2°51.733 11 116 6.1 100740 91
2002-03-01 08:35:15 51°17.232 2°51.736 9.6 117 6.1 100740 91
2002-03-01 08:35:19 51°17.217 2°51.739 10 114 6.1 100740 90
2002-03-01 08:35:25 51°17.195 2°51.746 9.1 115 6.1 100740 90
2002-03-01 08:35:29 51°17.18 2°51.752 10.4 110 6.1 100730 90
2002-03-01 08:35:35 51°17.158 2°51.763 10.6 112 6.1 100730 90
2002-03-01 08:35:39 51°17.144 2°51.773 9.9 112 6.1 100730 90
2002-03-01 08:35:45 51°17.122 2°51.788 9 112 6.1 100730 90
2002-03-01 08:35:49 51°17.108 2°51.798 9.5 110 6.1 100740 90
2002-03-01 08:35:55 51°17.088 2°51.814 9.3 110 6.1 100740 90
2002-03-01 08:35:59 51°17.074 2°51.824 10 109 6.1 100730 90
2002-03-01 08:36:05 51°17.054 2°51.841 10.1 109 6.1 100730 90
2002-03-01 08:36:09 51°17.04 2°51.852 9.9 109 6.1 100740 90
2002-03-01 08:36:15 51°17.02 2°51.869 9 107 6.1 100740 90
2002-03-01 08:36:19 51°17.006 2°51.88 9.5 106 6.1 100740 90
2002-03-01 08:36:25 51°16.985 2°51.897 8.9 105 6.1 100740 90
2002-03-01 08:36:29 51°16.971 2°51.909 9.7 108 6.1 100740 90
2002-03-01 08:36:35 51°16.951 2°51.926 9.9 108 6.1 100740 90
2002-03-01 08:36:39 51°16.938 2°51.937 10 107 6.1 100740 90
2002-03-01 08:36:45 51°16.917 2°51.954 9.8 107 6.1 100740 90
2002-03-01 08:36:49 51°16.904 2°51.967 9.5 111 6.1 100740 90
2002-03-01 08:36:55 51°16.883 2°51.986 9.8 106 6.1 100740 90
2002-03-01 08:36:59 51°16.869 2°51.997 9.3 110 6 100740 90
2002-03-01 08:37:05 51°16.849 2°52.015 8.9 107 6 100740 90
2002-03-01 08:37:09 51°16.836 2°52.027 10.2 109 6 100740 90
2002-03-01 08:37:15 51°16.817 2°52.045 10.6 109 6 100740 90
2002-03-01 08:37:19 51°16.803 2°52.057 10.6 112 6.1 100740 90
2002-03-01 08:37:25 51°16.783 2°52.075 10.6 107 6.1 100740 90
2002-03-01 08:37:29 51°16.769 2°52.087 9.2 111 6 100740 90
2002-03-01 08:37:35 51°16.749 2°52.104 9.2 108 6 100740 90
2002-03-01 08:37:39 51°16.736 2°52.115 9.2 111 6 100740 90
2002-03-01 08:37:45 51°16.716 2°52.134 9.2 108 6 100740 90
2002-03-01 08:37:49 51°16.703 2°52.146 11.5 113 6 100740 90
2002-03-01 08:37:55 51°16.682 2°52.165 11.2 111 6 100740 90
2002-03-01 08:37:59 51°16.668 2°52.177 9.6 110 6 100740 90
2002-03-01 08:38:05 51°16.647 2°52.196 10.4 110 6 100740 90
2002-03-01 08:38:09 51°16.633 2°52.209 10.3 109 6 100740 90
2002-03-01 08:38:15 51°16.613 2°52.227 10.2 112 6 100740 90
2002-03-01 08:38:19 51°16.6 2°52.239 10.5 109 6 100740 90
2002-03-01 08:38:25 51°16.58 2°52.258 9.2 115 6 100740 90
2002-03-01 08:38:29 51°16.566 2°52.271 10.3 109 6 100740 90
2002-03-01 08:38:35 51°16.546 2°52.29 10 109 6 100740 90
2002-03-01 08:38:39 51°16.532 2°52.303 10.4 107 6 100740 89
2002-03-01 08:38:45 51°16.512 2°52.323 9.6 109 6 100740 89
2002-03-01 08:38:49 51°16.499 2°52.337 10.4 110 6 100740 90
2002-03-01 08:38:55 51°16.48 2°52.358 9.9 107 6 100740 90
2002-03-01 08:38:59 51°16.467 2°52.372 9.4 106 5.9 100740 89
2002-03-01 08:39:05 51°16.448 2°52.393 10.1 106 5.9 100740 89
2002-03-01 08:39:09 51°16.434 2°52.407 10.4 106 5.9 100740 90
2002-03-01 08:39:15 51°16.415 2°52.429 9.6 107 5.9 100740 90
2002-03-01 08:39:19 51°16.402 2°52.443 9.6 105 5.9 100740 90
2002-03-01 08:39:25 51°16.383 2°52.464 8.6 109 5.9 100740 90
2002-03-01 08:39:29 51°16.37 2°52.477 10 107 5.9 100740 89
2002-03-01 08:39:35 51°16.351 2°52.499 10.2 109 5.9 100740 89
2002-03-01 08:39:39 51°16.338 2°52.514 9.2 110 5.9 100740 89
2002-03-01 08:39:45 51°16.319 2°52.535 10.3 103 5.9 100740 89
2002-03-01 08:39:49 51°16.306 2°52.547 9.5 105 5.9 100740 90
2002-03-01 08:39:55 51°16.288 2°52.567 8.8 102 5.9 100740 90
2002-03-01 08:39:59 51°16.275 2°52.58 9.6 110 5.9 100740 90
2002-03-01 08:40:05 51°16.255 2°52.6 10.3 104 5.9 100740 90
2002-03-01 08:40:09 51°16.242 2°52.613 9 107 5.9 100740 90
2002-03-01 08:40:15 51°16.223 2°52.634 9.3 106 5.9 100740 90
2002-03-01 08:40:19 51°16.21 2°52.648 9.6 109 5.9 100750 90
2002-03-01 08:40:25 51°16.191 2°52.668 9.3 104 5.9 100750 90
2002-03-01 08:40:29 51°16.179 2°52.682 10.3 109 5.9 100740 90
2002-03-01 08:40:35 51°16.159 2°52.702 9.4 105 5.9 100740 90
2002-03-01 08:40:39 51°16.146 2°52.716 10.2 106 5.9 100740 90
2002-03-01 08:40:45 51°16.127 2°52.737 10.3 106 5.9 100740 90
2002-03-01 08:40:49 51°16.115 2°52.75 9.9 107 5.9 100740 89
2002-03-01 08:40:55 51°16.096 2°52.771 9.4 107 5.9 100740 89
2002-03-01 08:40:59 51°16.083 2°52.785 9.7 107 5.8 100740 89
2002-03-01 08:41:05 51°16.064 2°52.805 10 105 5.8 100740 89
2002-03-01 08:41:10 51°16.048 2°52.822 9.5 104 5.8 100740 89
2002-03-01 08:41:15 51°16.032 2°52.837 9.1 105 5.8 100740 89
2002-03-01 08:41:19 51°16.02 2°52.851 9.7 106 5.8 100750 89
2002-03-01 08:41:23 51°16.008 2°52.865 9.8 103 5.8 100750 89
2002-03-01 08:41:29 51°15.989 2°52.886 9 102 5.8 100740 89
2002-03-01 08:41:35 51°15.97 2°52.907 10.1 106 5.8 100740 89
2002-03-01 08:41:39 51°15.958 2°52.921 9 104 5.8 100750 89
2002-03-01 08:41:45 51°15.939 2°52.941 9 100 5.8 100750 89
2002-03-01 08:41:49 51°15.926 2°52.953 8 97 5.8 100740 89
2002-03-01 08:41:55 51°15.908 2°52.974 8.5 103 5.8 100740 89
2002-03-01 08:41:59 51°15.896 2°52.988 9.1 103 5.7 100740 89
2002-03-01 08:42:05 51°15.878 2°53.009 8.7 101 5.7 100740 89
2002-03-01 08:42:10 51°15.863 2°53.026 8.6 104 5.7 100750 89
2002-03-01 08:42:15 51°15.847 2°53.043 10.1 103 5.7 100750 89
2002-03-01 08:42:19 51°15.835 2°53.057 8.6 99 5.7 100740 89
2002-03-01 08:42:25 51°15.817 2°53.079 9.1 104 5.7 100740 89
2002-03-01 08:42:29 51°15.805 2°53.094 8.6 101 5.7 100750 89
2002-03-01 08:42:35 51°15.788 2°53.117 9.6 98 5.7 100750 89
2002-03-01 08:42:39 51°15.776 2°53.131 9.2 98 5.7 100750 89
2002-03-01 08:42:45 51°15.758 2°53.152 8.2 102 5.7 100750 89
2002-03-01 08:42:50 51°15.743 2°53.169 8.7 101 5.7 100750 89
2002-03-01 08:42:55 51°15.728 2°53.187 9.5 100 5.7 100750 89
2002-03-01 08:43:00 51°15.712 2°53.205 8.3 103 5.7 100740 89
2002-03-01 08:43:05 51°15.697 2°53.224 8.5 104 5.7 100740 89
2002-03-01 08:43:09 51°15.685 2°53.238 9.5 104 5.7 100750 89
2002-03-01 08:43:15 51°15.667 2°53.258 9.4 108 5.7 100750 89
2002-03-01 08:43:20 51°15.652 2°53.276 9.3 103 5.6 100750 89
2002-03-01 08:43:25 51°15.637 2°53.295 8.2 103 5.6 100750 89
2002-03-01 08:43:29 51°15.626 2°53.309 9.3 103 5.6 100750 89
2002-03-01 08:43:35 51°15.609 2°53.331 9 102 5.6 100750 89
2002-03-01 08:43:39 51°15.597 2°53.345 8.8 99 5.6 100750 89
2002-03-01 08:43:45 51°15.579 2°53.367 8.8 103 5.6 100750 89
2002-03-01 08:43:49 51°15.567 2°53.382 8.5 105 5.6 100750 89
2002-03-01 08:43:55 51°15.549 2°53.404 8.8 101 5.6 100750 89
2002-03-01 08:43:59 51°15.537 2°53.419 8.3 101 5.6 100760 89
2002-03-01 08:44:05 51°15.519 2°53.441 8.9 104 5.6 100760 89
2002-03-01 08:44:09 51°15.508 2°53.456 9 101 5.6 100750 89
2002-03-01 08:44:15 51°15.491 2°53.478 8.5 104 5.6 100750 89
2002-03-01 08:44:19 51°15.479 2°53.492 8.3 105 5.6 100760 89
2002-03-01 08:44:25 51°15.461 2°53.514 9.7 106 5.6 100760 89
2002-03-01 08:44:29 51°15.449 2°53.528 9.2 109 5.6 100750 89
2002-03-01 08:44:35 51°15.431 2°53.551 9.1 105 5.6 100750 89
2002-03-01 08:44:39 51°15.42 2°53.566 9.3 113 5.6 100760 90
2002-03-01 08:44:45 51°15.402 2°53.587 8.1 110 5.6 100760 90
2002-03-01 08:44:49 51°15.391 2°53.602 8.7 114 5.6 100760 90
2002-03-01 08:44:55 51°15.374 2°53.624 9.1 107 5.6 100760 90
2002-03-01 08:44:59 51°15.362 2°53.639 9.6 115 5.6 100760 90
2002-03-01 08:45:05 51°15.345 2°53.662 9.7 113 5.6 100760 90
2002-03-01 08:45:09 51°15.333 2°53.677 8.6 112 5.6 100760 90
2002-03-01 08:45:15 51°15.316 2°53.699 9.7 112 5.6 100760 90
2002-03-01 08:45:20 51°15.302 2°53.718 8.8 114 5.6 100760 90
2002-03-01 08:45:23 51°15.293 2°53.729 8.6 111 5.6 100760 90
2002-03-01 08:45:29 51°15.276 2°53.752 8.7 112 5.6 100760 90
2002-03-01 08:45:35 51°15.259 2°53.775 9.3 113 5.6 100760 90
2002-03-01 08:45:39 51°15.248 2°53.789 9.7 114 5.6 100760 89
2002-03-01 08:45:45 51°15.231 2°53.81 9 110 5.6 100760 89
2002-03-01 08:45:49 51°15.219 2°53.824 9.2 112 5.6 100760 89
2002-03-01 08:45:55 51°15.202 2°53.847 9.7 110 5.6 100760 89
2002-03-01 08:45:59 51°15.19 2°53.862 8.9 111 5.5 100760 89
2002-03-01 08:46:03 51°15.179 2°53.877 9 111 5.5 100760 89
2002-03-01 08:46:09 51°15.162 2°53.9 9 112 5.5 100760 89
2002-03-01 08:46:15 51°15.145 2°53.923 9.4 109 5.5 100760 89
2002-03-01 08:46:19 51°15.134 2°53.939 9.4 109 5.5 100760 89
2002-03-01 08:46:25 51°15.117 2°53.96 8.6 110 5.5 100760 89
2002-03-01 08:46:29 51°15.107 2°53.975 8.4 108 5.5 100760 89
2002-03-01 08:46:35 51°15.09 2°53.997 8.6 110 5.5 100760 89
2002-03-01 08:46:39 51°15.079 2°54.012 9.4 110 5.5 100760 89
2002-03-01 08:46:45 51°15.062 2°54.033 9.3 111 5.5 100760 89
2002-03-01 08:46:49 51°15.051 2°54.048 7.9 107 5.4 100760 89
2002-03-01 08:46:55 51°15.034 2°54.07 9.1 107 5.4 100760 89
2002-03-01 08:46:59 51°15.024 2°54.086 8.7 108 5.4 100760 89
2002-03-01 08:47:05 51°15.007 2°54.109 8.7 108 5.4 100760 89
2002-03-01 08:47:09 51°14.997 2°54.125 8 112 5.4 100760 89
2002-03-01 08:47:15 51°14.981 2°54.147 8.2 109 5.4 100760 89
2002-03-01 08:47:19 51°14.971 2°54.161 7.9 103 5.4 100760 89
2002-03-01 08:47:25 51°14.956 2°54.181 7.8 105 5.4 100760 89
2002-03-01 08:47:29 51°14.946 2°54.194 8.3 113 5.4 100770 89
2002-03-01 08:47:35 51°14.931 2°54.213 7.5 107 5.4 100770 89
2002-03-01 08:47:39 51°14.921 2°54.226 7 107 5.4 100770 89
2002-03-01 08:47:45 51°14.908 2°54.247 6 101 5.4 100770 89
2002-03-01 08:47:50 51°14.897 2°54.263 6.2 107 5.4 100770 89
2002-03-01 08:47:54 51°14.889 2°54.276 6.9 107 5.4 100770 89
2002-03-01 08:47:59 51°14.879 2°54.291 6.4 112 5.4 100770 89
2002-03-01 08:48:05 51°14.868 2°54.309 6.3 111 5.4 100770 89
2002-03-01 08:48:09 51°14.861 2°54.321 6.5 109 5.4 100770 89
2002-03-01 08:48:15 51°14.85 2°54.338 7.4 108 5.4 100770 89
2002-03-01 08:48:19 51°14.843 2°54.348 6.6 110 5.4 100770 89
2002-03-01 08:48:25 51°14.832 2°54.366 5.8 105 5.4 100770 89
2002-03-01 08:48:29 51°14.825 2°54.376 6.1 106 5.4 100770 89
2002-03-01 08:48:35 51°14.814 2°54.391 5.9 109 5.4 100770 89
2002-03-01 08:48:39 51°14.807 2°54.401 6.2 106 5.3 100770 89
2002-03-01 08:48:45 51°14.798 2°54.416 6.4 103 5.3 100770 89
2002-03-01 08:48:49 51°14.791 2°54.425 5.8 106 5.3 100770 89
2002-03-01 08:48:53 51°14.785 2°54.434 5.7 108 5.3 100770 89
2002-03-01 08:48:59 51°14.776 2°54.447 5.7 110 5.3 100770 89
2002-03-01 08:49:05 51°14.766 2°54.461 6 109 5.3 100770 89
2002-03-01 08:49:09 51°14.76 2°54.469 5.5 105 5.3 100770 89
2002-03-01 08:49:15 51°14.752 2°54.483 5.8 108 5.3 100770 89
2002-03-01 08:49:20 51°14.744 2°54.493 6 107 5.3 100770 89
2002-03-01 08:49:25 51°14.737 2°54.504 6.3 105 5.3 100770 89
2002-03-01 08:49:29 51°14.732 2°54.512 5.9 100 5.3 100770 89
2002-03-01 08:49:35 51°14.724 2°54.525 5.1 104 5.3 100770 89
2002-03-01 08:49:40 51°14.717 2°54.534 6 110 5.3 100770 89
2002-03-01 08:49:45 51°14.71 2°54.545 5.5 103 5.3 100770 89
2002-03-01 08:49:49 51°14.705 2°54.553 5.7 106 5.3 100770 89
2002-03-01 08:49:55 51°14.697 2°54.565 6.3 101 5.3 100770 89
2002-03-01 08:49:59 51°14.691 2°54.572 6.1 106 5.3 100770 89
2002-03-01 08:50:05 51°14.684 2°54.584 6 107 5.3 100770 89
2002-03-01 08:50:09 51°14.678 2°54.592 5.3 101 5.2 100770 89
2002-03-01 08:50:15 51°14.67 2°54.604 6.4 107 5.2 100770 89
2002-03-01 08:50:19 51°14.665 2°54.611 5.5 99 5.2 100760 89
2002-03-01 08:50:25 51°14.658 2°54.623 4.8 92 5.2 100760 89
2002-03-01 08:50:29 51°14.652 2°54.631 5.5 102 5.2 100770 89
2002-03-01 08:50:35 51°14.645 2°54.642 5.2 100 5.2 100770 89
2002-03-01 08:50:39 51°14.64 2°54.65 5.1 98 5.2 100770 89
2002-03-01 08:50:45 51°14.633 2°54.662 5.2 94 5.2 100770 89
2002-03-01 08:50:49 51°14.628 2°54.67 5.4 97 5.2 100770 89
2002-03-01 08:50:55 51°14.621 2°54.681 5.2 99 5.2 100770 89
2002-03-01 08:50:59 51°14.616 2°54.689 5.4 96 5.2 100770 89
2002-03-01 08:51:05 51°14.609 2°54.7 5.4 96 5.2 100770 89
2002-03-01 08:51:09 51°14.605 2°54.708 5.6 98 5.2 100770 89
2002-03-01 08:51:15 51°14.598 2°54.719 4.9 93 5.2 100770 89
2002-03-01 08:51:19 51°14.593 2°54.725 5.2 96 5.2 100770 89
2002-03-01 08:51:25 51°14.586 2°54.735 4.2 89 5.2 100770 89
2002-03-01 08:51:29 51°14.581 2°54.741 4.2 93 5.2 100770 89
2002-03-01 08:51:33 51°14.577 2°54.747 4.4 95 5.2 100770 89
2002-03-01 08:51:39 51°14.571 2°54.756 4.4 90 5.2 100770 89
2002-03-01 08:51:46 51°14.565 2°54.766 3.9 84 5.2 100770 89
2002-03-01 08:51:50 51°14.562 2°54.771 3.6 85 5.1 100770 89
2002-03-01 08:51:55 51°14.557 2°54.777 3.6 85 5.1 100770 89
2002-03-01 08:52:00 51°14.553 2°54.784 3.5 86 5.1 100770 89
2002-03-01 08:52:05 51°14.549 2°54.79 4.9 80 5.1 100770 89
2002-03-01 08:52:09 51°14.546 2°54.794 4.6 80 5.1 100780 89
2002-03-01 08:52:15 51°14.541 2°54.801 4.5 71 5.1 100780 89
2002-03-01 08:52:19 51°14.538 2°54.805 4.3 78 5.1 100770 89
2002-03-01 08:52:25 51°14.534 2°54.811 4 79 5.1 100770 89
2002-03-01 08:52:30 51°14.531 2°54.816 3.9 80 5.1 100770 89
2002-03-01 08:52:35 51°14.527 2°54.821 4.1 80 5.1 100770 89
2002-03-01 08:52:39 51°14.525 2°54.825 4.7 76 5.1 100770 89
2002-03-01 08:52:45 51°14.521 2°54.83 4.7 73 5.1 100770 89
2002-03-01 08:52:49 51°14.518 2°54.833 4.7 74 5.1 100770 89
2002-03-01 08:52:55 51°14.514 2°54.838 4.1 61 5.1 100770 89
2002-03-01 08:52:59 51°14.512 2°54.842 4.2 76 5.1 100770 89
2002-03-01 08:53:05 51°14.508 2°54.846 4 71 5.1 100770 89
2002-03-01 08:53:09 51°14.506 2°54.849 4 74 5.1 100770 89
2002-03-01 08:53:15 51°14.503 2°54.854 3.5 72 5.1 100770 89
2002-03-01 08:53:19 51°14.5 2°54.857 3.4 72 5.1 100780 89
2002-03-01 08:53:25 51°14.497 2°54.861 4.4 71 5.1 100780 89
2002-03-01 08:53:29 51°14.495 2°54.864 3.8 70 5.1 100780 89
2002-03-01 08:53:35 51°14.491 2°54.868 3.9 75 5.1 100780 89
2002-03-01 08:53:39 51°14.489 2°54.871 4.3 72 5.1 100780 89
2002-03-01 08:53:45 51°14.486 2°54.875 3.9 69 5.1 100780 89
2002-03-01 08:53:49 51°14.484 2°54.878 3.9 66 5.1 100780 89
2002-03-01 08:53:55 51°14.481 2°54.881 4 67 5.1 100780 89
2002-03-01 08:53:59 51°14.479 2°54.884 4.1 67 5.1 100780 89
2002-03-01 08:54:05 51°14.476 2°54.888 3.4 59 5.1 100780 89
2002-03-01 08:54:09 51°14.473 2°54.89 3.5 65 5.1 100780 90
2002-03-01 08:54:15 51°14.471 2°54.894 4.5 65 5.1 100780 90
2002-03-01 08:54:19 51°14.469 2°54.896 4 46 5.2 100780 90
2002-03-01 08:54:25 51°14.466 2°54.9 4 49 5.2 100780 90
2002-03-01 08:54:29 51°14.464 2°54.902 3.7 55 5.1 100780 90
2002-03-01 08:54:35 51°14.461 2°54.906 3.3 44 5.1 100780 90
2002-03-01 08:54:40 51°14.459 2°54.908 3.5 46 5.2 100780 90
2002-03-01 08:54:45 51°14.458 2°54.91 4 50 5.2 100780 90
2002-03-01 08:54:50 51°14.457 2°54.911 3.6 43 5.2 100780 90
2002-03-01 08:54:55 51°14.456 2°54.911 3.3 43 5.2 100780 90
2002-03-01 08:55:00 51°14.456 2°54.909 3.5 36 5.2 100780 90
2002-03-01 08:55:05 51°14.456 2°54.907 3.4 20 5.2 100780 90
2002-03-01 08:55:10 51°14.457 2°54.903 3.7 19 5.2 100780 90
2002-03-01 08:55:15 51°14.457 2°54.9 3.3 21 5.2 100780 90
2002-03-01 08:55:20 51°14.457 2°54.897 3.3 22 5.2 100780 90
2002-03-01 08:55:25 51°14.457 2°54.895 3.3 27 5.2 100780 90
2002-03-01 08:55:31 51°14.457 2°54.896 2.9 26 5.2 100780 90
2002-03-01 08:55:36 51°14.456 2°54.9 2.4 26 5.2 100780 90
2002-03-01 08:55:39 51°14.456 2°54.903 2.7 12 5.2 100780 90
2002-03-01 08:55:45 51°14.457 2°54.911 2.8 13 5.2 100780 90
2002-03-01 08:55:49 51°14.458 2°54.918 1.6 19 5.2 100780 90
2002-03-01 08:55:55 51°14.461 2°54.93 1.1 15 5.2 100780 90
2002-03-01 08:55:59 51°14.465 2°54.937 0.8 15 5.2 100780 90
2002-03-01 08:56:05 51°14.471 2°54.948 0.9 9 5.2 100780 90
2002-03-01 08:56:09 51°14.476 2°54.954 0.4 2 5.2 100780 90
2002-03-01 08:56:15 51°14.484 2°54.963 0.1 324 5.2 100780 90
2002-03-01 08:56:19 51°14.49 2°54.967 0.2 223 5.3 100780 90
2002-03-01 08:56:25 51°14.498 2°54.973 0.4 282 5.3 100780 90
2002-03-01 08:56:29 51°14.504 2°54.975 0.9 211 5.3 100790 90
2002-03-01 08:56:35 51°14.513 2°54.979 1.5 223 5.3 100790 90
2002-03-01 08:56:39 51°14.521 2°54.98 2.9 195 5.3 100790 90
2002-03-01 08:56:45 51°14.533 2°54.98 3.7 186 5.3 100790 90
2002-03-01 08:56:49 51°14.542 2°54.978 3.7 192 5.3 100790 90
2002-03-01 08:56:55 51°14.556 2°54.973 4.4 190 5.3 100790 90
2002-03-01 08:56:59 51°14.566 2°54.969 4.4 184 5.3 100790 90
2002-03-01 08:57:05 51°14.581 2°54.962 4.8 189 5.3 100790 90
2002-03-01 08:57:09 51°14.592 2°54.957 5.2 184 5.3 100780 90
2002-03-01 08:57:15 51°14.607 2°54.949 4.9 189 5.3 100780 90
2002-03-01 08:57:20 51°14.619 2°54.942 5 188 5.3 100790 90
2002-03-01 08:57:25 51°14.632 2°54.935 5.4 184 5.3 100790 90
2002-03-01 08:57:29 51°14.642 2°54.928 5 184 5.3 100790 90
2002-03-01 08:57:35 51°14.657 2°54.919 5.7 181 5.3 100790 90
2002-03-01 08:57:39 51°14.667 2°54.912 4.9 183 5.3 100790 90
2002-03-01 08:57:45 51°14.682 2°54.902 5 185 5.3 100790 90
2002-03-01 08:57:49 51°14.693 2°54.894 4.9 183 5.3 100790 90
2002-03-01 08:57:55 51°14.708 2°54.883 5.2 185 5.3 100790 90
2002-03-01 08:57:59 51°14.717 2°54.876 5.4 182 5.4 100790 90
2002-03-01 08:58:05 51°14.732 2°54.864 5.7 183 5.4 100790 90
2002-03-01 08:58:09 51°14.742 2°54.856 5.4 181 5.4 100790 90
2002-03-01 08:58:15 51°14.757 2°54.843 5.4 184 5.4 100790 90
2002-03-01 08:58:19 51°14.766 2°54.834 5.2 184 5.4 100790 90
2002-03-01 08:58:25 51°14.78 2°54.821 5.6 191 5.4 100790 90
2002-03-01 08:58:29 51°14.79 2°54.812 5.4 186 5.4 100790 90
2002-03-01 08:58:34 51°14.802 2°54.8 5 184 5.4 100790 90
2002-03-01 08:58:39 51°14.813 2°54.788 5.6 187 5.4 100790 90
2002-03-01 08:58:45 51°14.827 2°54.774 5.4 182 5.4 100790 90
2002-03-01 08:58:49 51°14.835 2°54.764 5.3 188 5.4 100790 90
2002-03-01 08:58:55 51°14.847 2°54.75 5 189 5.4 100790 90
2002-03-01 08:58:59 51°14.855 2°54.741 5.1 193 5.4 100790 90
2002-03-01 08:59:05 51°14.866 2°54.728 5.2 193 5.4 100790 90
2002-03-01 08:59:09 51°14.873 2°54.719 5.1 196 5.4 100790 90
2002-03-01 08:59:15 51°14.883 2°54.706 4.6 189 5.4 100790 90
2002-03-01 08:59:19 51°14.889 2°54.697 4.4 193 5.4 100800 90
2002-03-01 08:59:25 51°14.898 2°54.683 4.4 193 5.4 100800 90
2002-03-01 08:59:29 51°14.904 2°54.675 5 187 5.4 100790 90
2002-03-01 08:59:35 51°14.912 2°54.661 5.8 190 5.4 100790 90
2002-03-01 08:59:39 51°14.917 2°54.652 5.7 189 5.4 100800 90
2002-03-01 08:59:45 51°14.925 2°54.639 5.6 193 5.4 100800 90
2002-03-01 08:59:49 51°14.929 2°54.63 4.6 196 5.4 100790 90
2002-03-01 08:59:55 51°14.937 2°54.616 4.7 199 5.4 100790 90
2002-03-01 08:59:59 51°14.941 2°54.607 4.8 196 5.4 100790 90
2002-03-01 09:00:05 51°14.948 2°54.594 4.6 199 5.4 100790 90
2002-03-01 09:00:09 51°14.952 2°54.585 5 196 5.4 100790 90
2002-03-01 09:00:15 51°14.958 2°54.571 5.1 200 5.4 100790 90
2002-03-01 09:00:19 51°14.963 2°54.562 5.4 197 5.4 100800 90
2002-03-01 09:00:25 51°14.968 2°54.548 5.6 201 5.4 100800 90
2002-03-01 09:00:29 51°14.972 2°54.539 5.2 199 5.4 100800 90
2002-03-01 09:00:35 51°14.978 2°54.525 5.1 199 5.4 100800 90
2002-03-01 09:00:40 51°14.982 2°54.513 4.7 199 5.4 100800 90
2002-03-01 09:00:45 51°14.987 2°54.501 5.1 198 5.4 100800 90
2002-03-01 09:00:50 51°14.991 2°54.49 4.5 191 5.4 100800 90
2002-03-01 09:00:55 51°14.995 2°54.478 5.2 191 5.4 100800 90
2002-03-01 09:01:00 51°14.999 2°54.466 5.9 189 5.4 100800 90
2002-03-01 09:01:05 51°15.003 2°54.454 5.3 192 5.4 100800 90
2002-03-01 09:01:10 51°15.007 2°54.442 5.9 189 5.4 100800 90
2002-03-01 09:01:15 51°15.01 2°54.43 5.5 183 5.4 100800 90
2002-03-01 09:01:20 51°15.013 2°54.418 3.3 177 5.5 100800 90
2002-03-01 09:01:25 51°15.015 2°54.406 6.2 175 5.5 100800 90
2002-03-01 09:01:30 51°15.017 2°54.393 5.7 179 5.5 100800 90
2002-03-01 09:01:35 51°15.018 2°54.381 5.7 179 5.5 100800 90
2002-03-01 09:01:40 51°15.018 2°54.37 5.4 176 5.5 100800 90
2002-03-01 09:01:45 51°15.018 2°54.359 5.3 172 5.5 100800 90
2002-03-01 09:01:50 51°15.017 2°54.348 5.7 171 5.5 100800 90
2002-03-01 09:01:55 51°15.016 2°54.338 6 172 5.5 100800 90
2002-03-01 09:02:00 51°15.015 2°54.328 5.7 167 5.5 100800 90
2002-03-01 09:02:05 51°15.013 2°54.318 5.9 165 5.5 100800 90
2002-03-01 09:02:10 51°15.011 2°54.309 5.5 166 5.5 100800 90
2002-03-01 09:02:15 51°15.009 2°54.301 5.2 167 5.5 100800 90
2002-03-01 09:02:20 51°15.007 2°54.293 5.2 163 5.5 100800 90
2002-03-01 09:02:25 51°15.004 2°54.285 5.4 161 5.5 100800 90
2002-03-01 09:02:30 51°15.002 2°54.278 5.8 163 5.5 100790 90
2002-03-01 09:02:35 51°14.999 2°54.271 5.2 160 5.5 100790 90
2002-03-01 09:02:40 51°14.996 2°54.264 5.3 156 5.5 100800 89
2002-03-01 09:02:45 51°14.993 2°54.257 5.9 156 5.5 100800 89
2002-03-01 09:02:50 51°14.99 2°54.251 5.6 151 5.5 100790 89
2002-03-01 09:02:55 51°14.986 2°54.246 5.5 142 5.5 100790 89
2002-03-01 09:03:00 51°14.983 2°54.24 5.3 141 5.5 100800 89
2002-03-01 09:03:05 51°14.979 2°54.235 4.8 142 5.5 100800 89
2002-03-01 09:03:10 51°14.976 2°54.23 4.9 139 5.5 100800 89
2002-03-01 09:03:14 51°14.973 2°54.227 4.6 138 5.5 100800 89
2002-03-01 09:03:20 51°14.969 2°54.222 4.6 131 5.5 100800 90
2002-03-01 09:03:24 51°14.966 2°54.219 5.1 131 5.5 100800 90
2002-03-01 09:03:30 51°14.962 2°54.214 4.7 134 5.5 100810 90
2002-03-01 09:03:33 51°14.959 2°54.212 4.3 128 5.5 100810 90
2002-03-01 09:03:40 51°14.954 2°54.207 4.3 125 5.5 100810 90
2002-03-01 09:03:44 51°14.951 2°54.205 4.3 124 5.5 100810 90
2002-03-01 09:03:49 51°14.947 2°54.202 4 117 5.5 100800 90
2002-03-01 09:03:55 51°14.943 2°54.2 4.4 115 5.5 100800 90
2002-03-01 09:03:59 51°14.94 2°54.198 4.1 114 5.5 100800 90
2002-03-01 09:04:04 51°14.936 2°54.197 4.5 111 5.5 100800 90
2002-03-01 09:04:09 51°14.932 2°54.195 4.2 110 5.6 100810 90
2002-03-01 09:04:15 51°14.928 2°54.193 4.2 110 5.6 100810 90
2002-03-01 09:04:20 51°14.924 2°54.192 3.6 103 5.6 100800 89
2002-03-01 09:04:25 51°14.921 2°54.191 4 106 5.6 100800 89
2002-03-01 09:04:30 51°14.917 2°54.19 3.7 102 5.6 100800 89
2002-03-01 09:04:34 51°14.915 2°54.19 3.6 95 5.6 100800 89
2002-03-01 09:04:40 51°14.911 2°54.189 3.8 84 5.6 100810 89
2002-03-01 09:04:45 51°14.907 2°54.189 3.6 86 5.6 100810 89
2002-03-01 09:04:50 51°14.904 2°54.189 3.8 82 5.6 100810 89
2002-03-01 09:04:54 51°14.901 2°54.189 3.4 86 5.6 100810 89
2002-03-01 09:04:59 51°14.898 2°54.19 3.6 83 5.6 100810 89
2002-03-01 09:05:05 51°14.895 2°54.19 3.7 81 5.6 100810 89
2002-03-01 09:05:10 51°14.892 2°54.191 3.6 73 5.5 100810 89
2002-03-01 09:05:14 51°14.889 2°54.192 3.9 72 5.5 100810 89
2002-03-01 09:05:20 51°14.886 2°54.193 3.7 72 5.6 100810 89
2002-03-01 09:05:25 51°14.883 2°54.195 3.7 70 5.6 100810 89
2002-03-01 09:05:30 51°14.88 2°54.196 3.9 64 5.5 100800 89
2002-03-01 09:05:35 51°14.877 2°54.197 3.8 63 5.5 100800 89
2002-03-01 09:05:39 51°14.875 2°54.199 3.8 66 5.6 100810 89
2002-03-01 09:05:45 51°14.872 2°54.201 3.6 65 5.6 100810 89
2002-03-01 09:05:50 51°14.87 2°54.202 3.5 62 5.5 100810 89
2002-03-01 09:05:55 51°14.867 2°54.205 3.3 63 5.5 100810 89
2002-03-01 09:06:00 51°14.865 2°54.206 3.6 59 5.5 100810 89
2002-03-01 09:06:05 51°14.862 2°54.209 3.5 61 5.5 100810 89
2002-03-01 09:06:10 51°14.859 2°54.211 3.5 65 5.5 100810 89
2002-03-01 09:06:15 51°14.857 2°54.213 3.6 71 5.5 100810 89
2002-03-01 09:06:20 51°14.854 2°54.215 3.6 69 5.5 100810 89
2002-03-01 09:06:25 51°14.852 2°54.218 3.7 67 5.5 100810 89
2002-03-01 09:06:30 51°14.849 2°54.22 3.6 69 5.6 100810 89
2002-03-01 09:06:35 51°14.847 2°54.222 3.5 70 5.6 100810 89
2002-03-01 09:06:40 51°14.844 2°54.225 3.3 66 5.5 100810 89
2002-03-01 09:06:45 51°14.841 2°54.227 3.5 71 5.5 100810 89
2002-03-01 09:06:50 51°14.838 2°54.23 3 63 5.5 100810 89
2002-03-01 09:06:55 51°14.836 2°54.232 3.5 67 5.5 100810 89
2002-03-01 09:07:00 51°14.833 2°54.235 3.2 67 5.5 100810 89
2002-03-01 09:07:05 51°14.83 2°54.237 3.3 62 5.5 100810 89
2002-03-01 09:07:10 51°14.828 2°54.24 3.1 65 5.5 100810 89
2002-03-01 09:07:15 51°14.825 2°54.243 3.1 60 5.5 100810 89
2002-03-01 09:07:20 51°14.822 2°54.245 2.9 59 5.5 100810 89
2002-03-01 09:07:25 51°14.819 2°54.248 3.1 68 5.5 100810 89
2002-03-01 09:07:30 51°14.817 2°54.251 3.4 71 5.5 100810 89
2002-03-01 09:07:35 51°14.814 2°54.254 3.7 72 5.5 100810 89
2002-03-01 09:07:40 51°14.811 2°54.256 3.8 77 5.5 100810 89
2002-03-01 09:07:45 51°14.808 2°54.26 3.5 72 5.5 100810 89
2002-03-01 09:07:50 51°14.806 2°54.262 3.8 68 5.5 100810 89
2002-03-01 09:07:55 51°14.803 2°54.265 4 70 5.5 100810 89
2002-03-01 09:07:59 51°14.801 2°54.268 3.4 67 5.5 100820 89
2002-03-01 09:08:05 51°14.797 2°54.271 3.3 55 5.5 100820 89
2002-03-01 09:08:10 51°14.795 2°54.275 3.4 64 5.5 100810 89
2002-03-01 09:08:15 51°14.792 2°54.278 3.3 65 5.5 100810 89
2002-03-01 09:08:20 51°14.789 2°54.281 3.3 71 5.5 100810 89
2002-03-01 09:08:25 51°14.786 2°54.284 3.4 65 5.5 100810 89
2002-03-01 09:08:30 51°14.783 2°54.287 3.8 65 5.5 100810 89
2002-03-01 09:08:35 51°14.78 2°54.29 3.1 65 5.5 100810 89
2002-03-01 09:08:40 51°14.778 2°54.294 3.6 67 5.5 100820 89
2002-03-01 09:08:45 51°14.775 2°54.297 3.1 66 5.5 100820 89
2002-03-01 09:08:50 51°14.772 2°54.3 3.6 69 5.5 100820 89
2002-03-01 09:08:55 51°14.769 2°54.303 3.9 72 5.5 100820 89
2002-03-01 09:09:00 51°14.767 2°54.307 3.3 57 5.5 100820 89
2002-03-01 09:09:05 51°14.764 2°54.31 3.1 61 5.5 100820 89
2002-03-01 09:09:10 51°14.761 2°54.313 3.2 59 5.5 100810 89
2002-03-01 09:09:15 51°14.758 2°54.316 3.3 58 5.5 100810 89
2002-03-01 09:09:20 51°14.755 2°54.32 3.4 63 5.5 100810 89
2002-03-01 09:09:25 51°14.752 2°54.323 3.2 61 5.5 100810 89
2002-03-01 09:09:30 51°14.75 2°54.327 2.9 57 5.6 100810 89
2002-03-01 09:09:35 51°14.747 2°54.33 3.1 56 5.6 100810 89
2002-03-01 09:09:40 51°14.744 2°54.333 3.4 53 5.5 100820 89
2002-03-01 09:09:45 51°14.741 2°54.336 3.2 53 5.5 100820 89
2002-03-01 09:09:50 51°14.738 2°54.34 3.1 53 5.5 100810 89
2002-03-01 09:09:55 51°14.736 2°54.344 3.2 51 5.5 100810 89
2002-03-01 09:10:00 51°14.733 2°54.347 3.7 60 5.5 100820 89
2002-03-01 09:10:05 51°14.73 2°54.35 3.9 64 5.5 100820 89
2002-03-01 09:10:10 51°14.727 2°54.354 3.1 58 5.5 100820 89
2002-03-01 09:10:15 51°14.724 2°54.357 3.4 62 5.5 100820 89
2002-03-01 09:10:20 51°14.722 2°54.361 3.1 61 5.5 100820 89
2002-03-01 09:10:25 51°14.719 2°54.364 3.3 57 5.5 100820 89
2002-03-01 09:10:30 51°14.716 2°54.368 3 61 5.5 100820 89
2002-03-01 09:10:35 51°14.713 2°54.371 3.1 61 5.5 100820 89
2002-03-01 09:10:40 51°14.711 2°54.375 2.8 58 5.5 100820 89
2002-03-01 09:10:45 51°14.708 2°54.379 2.9 55 5.5 100820 89
2002-03-01 09:10:50 51°14.706 2°54.383 2.9 57 5.6 100820 89
2002-03-01 09:10:55 51°14.703 2°54.386 2.9 61 5.6 100820 89
2002-03-01 09:11:00 51°14.701 2°54.39 3.5 59 5.6 100820 89
2002-03-01 09:11:05 51°14.699 2°54.394 2.6 65 5.6 100820 89
2002-03-01 09:11:10 51°14.697 2°54.398 3 68 5.6 100820 89
2002-03-01 09:11:15 51°14.694 2°54.402 3.1 59 5.6 100820 89
2002-03-01 09:11:20 51°14.692 2°54.406 3.1 62 5.6 100820 89
2002-03-01 09:11:25 51°14.69 2°54.41 3 62 5.6 100820 89
2002-03-01 09:11:30 51°14.688 2°54.414 3.1 55 5.6 100820 89
2002-03-01 09:11:35 51°14.685 2°54.417 2.9 61 5.6 100820 89
2002-03-01 09:11:40 51°14.683 2°54.421 3 48 5.6 100820 89
2002-03-01 09:11:45 51°14.681 2°54.425 3.1 54 5.6 100820 89
2002-03-01 09:11:50 51°14.679 2°54.429 3.1 53 5.6 100820 89
2002-03-01 09:11:55 51°14.677 2°54.433 3.1 51 5.6 100820 89
2002-03-01 09:11:59 51°14.676 2°54.436 3.1 55 5.6 100820 89
2002-03-01 09:12:05 51°14.673 2°54.441 2.7 54 5.6 100820 89
2002-03-01 09:12:10 51°14.671 2°54.445 2.5 59 5.6 100820 89
2002-03-01 09:12:15 51°14.669 2°54.448 2.4 55 5.6 100820 89